Date String (YYYY-MM-DD hh:mm:ss) UTC,Instrument flags,Ambient pressure (hPa),Sample flow (lpm),Bypass flow (lpm),Sample temperature (°C),Ambient temperature (°C),ASC tube jacket temperature (°C),LED temperature (°C),Box temperature (°C),Sample RH (%),Span deviation,Mass concentration (μg/m³),Mass concentration (μg/m³),Mass concentration (μg/m³)
DateTimeUTC,F1_M11,P_M11,Q1_M11,Q2_M11,T1_M11,T2_M11,T3_M11,T4_M11,T5_M11,U1_M11,ZSPAN_M11,X0_M11,X2_M11,X1_M11
2021-09-29 22:00:00,,0827.2,5.01,0.00,30.2,29.3,00.0,39.1,32.0,24.1,0001.8,0011.25,0005.62,0004.63
2021-09-29 22:01:00,,0827.2,5.00,0.00,30.2,29.4,00.0,39.1,32.0,24.4,0002.0,0011.71,0005.66,0004.65
2021-09-29 22:02:00,,0827.3,4.99,0.00,30.2,29.4,00.0,39.2,32.0,24.0,0002.0,0011.99,0005.75,0004.69
2021-09-29 22:03:00,,0827.4,5.00,0.00,30.2,29.4,00.0,39.2,32.1,23.6,0002.0,0012.03,0005.84,0004.73
2021-09-29 22:04:00,,0827.4,5.00,0.00,30.3,29.5,00.0,39.2,32.1,23.5,0001.9,0012.19,0005.85,0004.77
2021-09-29 22:05:00,,0827.4,5.01,0.00,30.3,29.0,00.0,39.2,32.0,24.3,0002.0,0013.14,0005.85,0004.77
2021-09-29 22:06:00,,0827.4,4.99,0.00,30.1,27.0,00.0,39.2,31.4,24.9,0002.1,0013.33,0005.88,0004.77
2021-09-29 22:07:00,,0827.4,5.01,0.00,30.0,26.2,00.0,39.2,31.2,24.7,0002.2,0013.39,0005.90,0004.77
2021-09-29 22:08:00,,0827.4,5.01,0.00,29.8,26.4,00.0,39.1,31.2,25.0,0002.5,0013.30,0005.87,0004.76
2021-09-29 22:09:00,,0827.4,4.99,0.00,29.8,26.9,00.0,39.1,31.2,25.6,0002.4,0014.34,0005.87,0004.76
2021-09-29 22:10:00,,0827.4,5.00,0.00,29.8,27.3,00.0,39.0,31.3,24.7,0002.2,0014.29,0005.89,0004.77
2021-09-29 22:11:00,,0827.4,5.01,0.00,29.8,27.7,00.0,39.0,31.4,25.1,0002.2,0014.06,0005.86,0004.77
2021-09-29 22:12:00,,0827.4,5.00,0.00,29.8,27.9,00.0,39.0,31.4,26.3,0002.2,0013.72,0005.85,0004.78
2021-09-29 22:13:00,,0827.5,4.99,0.00,29.8,28.2,00.0,39.0,31.5,26.5,0002.4,0013.33,0005.78,0004.78
2021-09-29 22:14:00,,0827.5,5.01,0.00,29.8,28.4,00.0,39.0,31.5,26.1,0002.1,0013.10,0005.69,0004.77
2021-09-29 22:15:00,,0827.5,5.00,0.00,29.8,28.5,00.0,39.0,31.6,25.8,0002.2,0012.81,0005.67,0004.77
2021-09-29 22:16:00,,0827.5,4.99,0.00,29.8,28.7,00.0,39.0,31.6,25.7,0002.0,0011.49,0005.66,0004.77
2021-09-29 22:17:00,,0827.6,5.00,0.00,29.9,28.8,00.0,39.0,31.6,25.7,0001.8,0011.12,0005.64,0004.75
2021-09-29 22:18:00,,0827.5,5.00,0.00,29.9,28.9,00.0,39.0,31.7,25.3,0001.7,0011.69,0005.64,0004.75
2021-09-29 22:19:00,,0827.5,4.98,0.00,29.9,28.9,00.0,39.0,31.7,25.0,0001.5,0012.25,0005.66,0004.75
2021-09-29 22:20:00,,0827.5,5.01,0.00,29.9,28.9,00.0,39.0,31.7,24.7,0001.8,0011.34,0005.64,0004.73
2021-09-29 22:21:00,,0827.5,4.99,0.00,30.0,29.0,00.0,39.0,31.8,24.0,0002.3,0011.13,0005.61,0004.72
2021-09-29 22:22:00,,0827.6,5.00,0.00,30.0,29.0,00.0,39.0,31.8,24.4,0002.0,0011.19,0005.64,0004.73
2021-09-29 22:23:00,,0827.5,5.01,0.00,30.0,29.1,00.0,39.0,31.8,24.8,0001.7,0011.39,0005.65,0004.73
2021-09-29 22:24:00,,0827.5,5.00,0.00,30.0,29.1,00.0,39.1,31.9,24.9,0001.3,0011.52,0005.70,0004.73
2021-09-29 22:25:00,,0827.6,5.00,0.00,30.1,29.1,00.0,39.1,31.9,25.0,0001.4,0011.62,0005.73,0004.71
2021-09-29 22:26:00,,0827.6,5.00,0.00,30.1,29.2,00.0,39.1,31.9,24.9,0001.5,0011.73,0005.74,0004.68
2021-09-29 22:27:00,,0827.6,5.00,0.00,30.1,29.2,00.0,39.1,31.9,24.5,0001.4,0011.89,0005.74,0004.66
2021-09-29 22:28:00,,0827.6,5.00,0.00,30.1,29.2,00.0,39.1,31.9,23.7,0001.3,0011.98,0005.70,0004.63
2021-09-29 22:29:00,,0827.6,5.00,0.00,30.1,29.2,00.0,39.1,31.9,23.4,0001.6,0011.80,0005.70,0004.59
2021-09-29 22:30:00,,0827.7,5.00,0.00,30.1,29.2,00.0,39.1,31.9,23.5,0001.6,0011.05,0005.65,0004.56
2021-09-29 22:31:00,,0827.7,5.00,0.00,30.1,29.3,00.0,39.2,31.9,23.5,0001.2,0011.48,0005.60,0004.53
2021-09-29 22:32:00,,0827.7,5.01,0.00,30.2,29.3,00.0,39.2,31.9,23.5,0000.6,0011.81,0005.56,0004.50
2021-09-29 22:33:00,,0827.7,4.99,0.00,30.2,29.3,00.0,39.2,32.0,23.9,0000.7,0012.28,0005.51,0004.45
2021-09-29 22:34:00,,0827.7,4.99,0.00,30.2,29.3,00.0,39.2,32.0,24.1,0000.9,0012.66,0005.49,0004.41
2021-09-29 22:35:00,,0827.8,5.01,0.00,30.2,29.3,00.0,39.2,32.0,23.9,0000.9,0012.64,0005.42,0004.37
2021-09-29 22:36:00,,0827.7,5.00,0.00,30.2,29.4,00.0,39.2,32.0,23.9,0001.3,0012.83,0005.37,0004.34
2021-09-29 22:37:00,,0827.7,5.00,0.00,30.2,29.4,00.0,39.2,32.0,24.5,0001.5,0013.01,0005.34,0004.33
2021-09-29 22:38:00,,0827.7,5.01,0.00,30.2,29.4,00.0,39.3,32.0,24.4,0001.6,0012.89,0005.28,0004.31
2021-09-29 22:39:00,,0827.7,4.99,0.00,30.2,29.4,00.0,39.3,32.0,24.2,0001.9,0012.84,0005.26,0004.30
2021-09-29 22:40:00,,0827.7,4.98,0.00,30.2,29.4,00.0,39.3,32.0,24.2,0001.6,0012.73,0005.24,0004.29
2021-09-29 22:41:00,,0827.7,5.01,0.00,30.2,29.4,00.0,39.3,32.0,24.3,0000.0,0012.64,0005.23,0004.28
2021-09-29 22:42:00,,0827.7,5.00,0.00,30.3,29.4,00.0,39.3,32.0,24.5,0000.0,0012.64,0005.24,0004.27
2021-09-29 22:43:00,,0827.7,4.99,0.00,30.3,29.4,00.0,39.3,32.1,24.4,0000.0,0012.66,0005.26,0004.26
2021-09-29 22:44:00,,0827.7,5.00,0.00,30.3,29.4,00.0,39.3,32.1,24.2,0000.0,0012.94,0005.29,0004.25
2021-09-29 22:45:00,,0827.7,5.00,0.00,30.3,29.4,00.0,39.3,32.1,24.2,0000.0,0012.50,0005.30,0004.24
2021-09-29 22:46:00,,0827.8,5.01,0.00,30.3,29.5,00.0,39.4,32.1,24.0,0000.0,0012.52,0005.28,0004.22
2021-09-29 22:47:00,,0827.8,5.01,0.00,30.3,29.5,00.0,39.4,32.1,23.8,0000.0,0012.70,0005.31,0004.22
2021-09-29 22:48:00,,0827.7,4.99,0.00,30.3,29.5,00.0,39.4,32.1,23.8,0000.6,0012.68,0005.28,0004.20
2021-09-29 22:49:00,,0827.8,5.01,0.00,30.3,29.5,00.0,39.4,32.1,23.5,0000.0,0012.82,0005.28,0004.19
2021-09-29 22:50:00,,0827.8,4.99,0.00,30.3,29.5,00.0,39.4,32.1,23.5,0000.0,0013.18,0005.27,0004.18
2021-09-29 22:51:00,,0827.8,4.99,0.00,30.3,29.5,00.0,39.4,32.1,23.3,0000.0,0013.54,0005.26,0004.17
2021-09-29 22:52:00,,0827.8,5.00,0.00,30.3,29.5,00.0,39.4,32.1,23.3,0001.2,0014.39,0005.21,0004.15
2021-09-29 22:53:00,,0827.8,5.02,0.00,30.4,29.5,00.0,39.4,32.1,23.2,0001.8,0014.91,0005.18,0004.14
2021-09-29 22:54:00,,0827.7,4.98,0.00,30.4,29.5,00.0,39.4,32.1,23.4,0001.8,0014.35,0005.14,0004.12
2021-09-29 22:55:00,,0827.8,5.01,0.00,30.4,29.5,00.0,39.4,32.1,23.5,0001.3,0013.75,0005.06,0004.11
2021-09-29 22:56:00,,0827.7,5.01,0.00,30.4,29.5,00.0,39.5,32.1,23.7,0000.0,0013.49,0004.97,0004.09
2021-09-29 22:57:00,,0827.7,5.00,0.00,30.4,29.5,00.0,39.5,32.2,23.6,0000.0,0013.15,0004.94,0004.09
2021-09-29 22:58:00,,0827.7,5.00,0.00,30.4,29.5,00.0,39.5,32.2,23.5,0000.0,0012.97,0004.96,0004.08
2021-09-29 22:59:00,,0827.7,5.01,0.00,30.4,29.5,00.0,39.5,32.2,23.3,0000.0,0012.84,0004.96,0004.06
